Weather History for Franklin, NC

Change the Weather History Date:

Tuesday, February 5, 2013

  Actual Average (KTOC) Record (KTOC)
Temperature  
Mean Temperature 42 °F -  
Max Temperature 55 °F 54 °F 63 °F (2014)
Min Temperature 28 °F 31 °F 38 °F (2014)
Degree Days  
Heating Degree Days 24    
Moisture  
Dew Point 31 °F    
Average Humidity 75    
Maximum Humidity 93    
Minimum Humidity 40    
Precipitation  
Precipitation 0.00 in - - ()
Sea Level Pressure  
Sea Level Pressure 29.97 in    
Wind  
Wind Speed 1 mph (West)    
Max Wind Speed 8 mph    
Max Gust Speed -    
Visibility 10 miles    
Events      
Averages and records for this station are not official NWS values.
T = Trace of Precipitation, MM = Missing Value Source: NWS Daily Summary

Daily Weather History Graph

Daily Weather History Graph

Search for Another Location

Airport:

Trip Planner

Search our weather history database for the weather conditions in past years. The results will help you decide how hot, cold, wet, or windy it might be!

Date:

Astronomy

Feb. 05, 2013 Rise Set
Actual Time 7:29 AM EST 6:06 PM EST
Civil Twilight 7:02 AM EST 6:32 PM EST
Nautical Twilight 6:32 AM EST 7:03 PM EST
Astronomical Twilight 6:03 AM EST 7:32 PM EST
Moon 3:06 AM EST (2/5) 1:27 PM EST (2/5)
Length of Visible Light 11h 29m
Length of Day
10h 37m
Waning Crescent, 27% of the Moon is Illuminated
Feb 5
Waning Crescent
Feb 10
New
Feb 17
First Quarter
Feb 25
Full
Mar 4
Last Quarter

Hourly Weather History & Observations

Time (EST) Temp. Windchill Dew Point Humidity Pressure Visibility Wind Dir Wind Speed Gust Speed Precip Events Conditions
12:15 AM 34.2 °F - 30.2 °F 85% 29.97 in 10.0 mi Calm Calm - N/A   Overcast
12:35 AM 34.0 °F - 29.7 °F 84% 29.96 in 10.0 mi Calm Calm - N/A   Overcast
12:55 AM 32.2 °F - 28.8 °F 87% 29.96 in 10.0 mi Calm Calm - N/A   Overcast
1:15 AM 32.4 °F - 28.4 °F 85% 29.96 in 10.0 mi Calm Calm - N/A   Overcast
1:35 AM 32.0 °F - 28.6 °F 87% 29.96 in 10.0 mi Calm Calm - N/A   Overcast
1:55 AM 31.3 °F - 27.9 °F 87% 29.95 in 10.0 mi Calm Calm - N/A   Mostly Cloudy
2:15 AM 30.7 °F - 27.5 °F 88% 29.95 in 10.0 mi Calm Calm - N/A   Scattered Clouds
2:35 AM 30.6 °F - 27.5 °F 88% 29.95 in 10.0 mi Calm Calm - N/A   Mostly Cloudy
2:55 AM 31.1 °F - 27.5 °F 87% 29.95 in 10.0 mi Calm Calm - N/A   Overcast
3:15 AM 30.9 °F - 27.5 °F 87% 29.94 in 10.0 mi Calm Calm - N/A   Overcast
3:35 AM 31.1 °F - 27.7 °F 87% 29.94 in 10.0 mi Calm Calm - N/A   Overcast
3:55 AM 30.9 °F - 27.5 °F 87% 29.94 in 10.0 mi Calm Calm - N/A   Mostly Cloudy
4:15 AM 30.7 °F - 27.5 °F 88% 29.94 in 10.0 mi Calm Calm - N/A   Mostly Cloudy
4:35 AM 31.1 °F - 28.0 °F 88% 29.94 in 10.0 mi Calm Calm - N/A   Overcast
4:55 AM 32.0 °F - 28.4 °F 87% 29.95 in 10.0 mi Calm Calm - N/A   Overcast
5:15 AM 32.0 °F - 28.9 °F 88% 29.95 in 10.0 mi Calm Calm - N/A   Overcast
5:35 AM 32.4 °F - 28.8 °F 87% 29.95 in 10.0 mi Calm Calm - N/A   Overcast
5:55 AM 32.5 °F - 28.4 °F 85% 29.94 in 10.0 mi Calm Calm - N/A   Overcast
6:15 AM 32.4 °F - 27.9 °F 83% 29.95 in 10.0 mi Calm Calm - N/A   Mostly Cloudy
6:35 AM 32.4 °F - 28.8 °F 87% 29.95 in 10.0 mi Calm Calm - N/A   Overcast
6:55 AM 33.3 °F - 29.3 °F 85% 29.96 in 10.0 mi Calm Calm - N/A   Overcast
7:15 AM 33.8 °F 30.8 °F 29.5 °F 84% 29.97 in 10.0 mi WSW 3.5 mph - N/A   Light Drizzle
7:35 AM 33.8 °F - 29.5 °F 84% 29.97 in 10.0 mi Calm Calm - N/A   Overcast
7:55 AM 34.3 °F - 29.8 °F 84% 29.97 in 10.0 mi Calm Calm - N/A   Overcast
8:15 AM 34.7 °F - 29.8 °F 82% 29.98 in 10.0 mi Calm Calm - N/A   Overcast
8:35 AM 35.2 °F - 30.2 °F 82% 29.97 in 10.0 mi Calm Calm - N/A   Overcast
8:55 AM 36.0 °F - 30.4 °F 80% 29.99 in 10.0 mi Calm Calm - N/A   Overcast
9:15 AM 36.3 °F - 30.6 °F 80% 29.98 in 10.0 mi Calm Calm - N/A   Overcast
9:35 AM 37.9 °F - 30.4 °F 74% 29.99 in 10.0 mi Calm Calm - N/A   Overcast
9:55 AM 38.5 °F - 31.1 °F 75% 29.99 in 10.0 mi Calm Calm - N/A   Overcast
10:15 AM 38.7 °F - 31.5 °F 75% 29.99 in 10.0 mi Calm Calm - N/A   Overcast
10:35 AM 38.7 °F - 31.1 °F 74% 30.00 in 10.0 mi Calm Calm - N/A   Overcast
10:55 AM 38.8 °F - 30.7 °F 73% 30.01 in 10.0 mi Calm Calm - N/A   Overcast
11:15 AM 39.2 °F 35.9 °F 32.0 °F 75% 30.01 in 10.0 mi WSW 4.6 mph - N/A   Overcast
11:35 AM 40.1 °F - 32.5 °F 74% 30.01 in 10.0 mi Calm Calm - N/A   Overcast
11:55 AM 43.0 °F - 34.2 °F 71% 30.01 in 10.0 mi Calm Calm - N/A   Mostly Cloudy
12:15 PM 45.1 °F 42.8 °F 34.7 °F 67% 30.00 in 10.0 mi WSW 4.6 mph - N/A   Mostly Cloudy
12:35 PM 47.1 °F - 35.4 °F 64% 29.99 in 10.0 mi Calm Calm - N/A   Scattered Clouds
12:55 PM 49.8 °F - 36.3 °F 60% 29.98 in 10.0 mi NW 3.5 mph - N/A   Clear
1:15 PM 49.5 °F - 35.4 °F 58% 29.97 in 10.0 mi Calm Calm - N/A   Clear
1:35 PM 51.3 °F - 34.7 °F 53% 29.95 in 10.0 mi West 5.8 mph - N/A   Clear
1:55 PM 52.3 °F - 34.0 °F 50% 29.94 in 10.0 mi WSW 8.1 mph - N/A   Clear
2:15 PM 53.1 °F - 32.5 °F 46% 29.94 in 10.0 mi Calm Calm - N/A   Clear
2:35 PM 53.4 °F - 34.3 °F 48% 29.93 in 10.0 mi ENE 5.8 mph - N/A   Clear
2:55 PM 54.3 °F - 34.0 °F 46% 29.93 in 10.0 mi Calm Calm - N/A   Clear
3:15 PM 54.5 °F - 33.4 °F 45% 29.93 in 10.0 mi NNE 4.6 mph - N/A   Clear
3:35 PM 55.0 °F - 32.5 °F 43% 29.93 in 10.0 mi Calm Calm - N/A   Clear
3:55 PM 55.4 °F - 32.0 °F 41% 29.93 in 10.0 mi Calm Calm - N/A   Clear
4:15 PM 55.9 °F - 31.6 °F 40% 29.93 in 10.0 mi WSW 3.5 mph - N/A   Clear
4:35 PM 55.4 °F - 33.1 °F 43% 29.93 in 10.0 mi North 3.5 mph - N/A   Clear
4:55 PM 55.6 °F - 31.8 °F 41% 29.93 in 10.0 mi WNW 3.5 mph - N/A   Clear
5:15 PM 54.9 °F - 32.9 °F 43% 29.94 in 10.0 mi WNW 3.5 mph - N/A   Clear
5:35 PM 52.5 °F - 33.6 °F 49% 29.94 in 10.0 mi West 3.5 mph - N/A   Clear
5:55 PM 49.3 °F - 32.0 °F 51% 29.94 in 10.0 mi SW 3.5 mph - N/A   Clear
6:15 PM 45.5 °F 43.2 °F 33.4 °F 63% 29.95 in 10.0 mi WSW 4.6 mph - N/A   Clear
6:35 PM 42.8 °F 40.1 °F 33.3 °F 69% 29.95 in 10.0 mi SW 4.6 mph - N/A   Clear
6:55 PM 38.5 °F 35.0 °F 32.4 °F 79% 29.96 in 10.0 mi SW 4.6 mph - N/A   Clear
7:15 PM 38.3 °F - 32.2 °F 79% 29.97 in 10.0 mi Calm Calm - N/A   Clear
7:35 PM 36.5 °F - 32.0 °F 84% 29.97 in 10.0 mi Calm Calm - N/A   Clear
7:55 PM 34.9 °F - 31.8 °F 89% 29.98 in 10.0 mi Calm Calm - N/A   Clear
8:15 PM 33.1 °F 28.7 °F 30.0 °F 89% 29.99 in 10.0 mi South 4.6 mph - N/A   Clear
8:35 PM 33.3 °F - 30.9 °F 91% 29.99 in 10.0 mi Calm Calm - N/A   Clear
8:55 PM 32.5 °F - 29.7 °F 89% 30.00 in 10.0 mi Calm Calm - N/A   Clear
9:15 PM 31.8 °F - 29.3 °F 90% 30.01 in 10.0 mi Calm Calm - N/A   Clear
9:35 PM 31.8 °F - 29.7 °F 92% 30.02 in 10.0 mi Calm Calm - N/A   Clear
9:55 PM 29.8 °F - 27.5 °F 91% 30.02 in 10.0 mi Calm Calm - N/A   Clear
10:15 PM 29.8 °F - 27.9 °F 92% 30.02 in 10.0 mi Calm Calm - N/A   Clear
10:35 PM 29.8 °F - 27.9 °F 92% 30.03 in 10.0 mi Calm Calm - N/A   Clear
10:55 PM 29.3 °F - 27.3 °F 92% 30.03 in 10.0 mi Calm Calm - N/A   Clear
11:15 PM 29.1 °F - 27.3 °F 93% 30.03 in 10.0 mi Calm Calm - N/A   Clear
11:35 PM 28.6 °F - 26.8 °F 93% 30.03 in 10.0 mi Calm Calm - N/A   Clear
11:55 PM 28.0 °F - 26.2 °F 93% 30.03 in 10.0 mi Calm Calm - N/A   Clear